Regional Weather Roundup
Issued by NWS

Home | Current Version | Previous Version | Text Only | Print | Product List | Glossary On
Versions: 1 2 3 4 5 6 7 8 9 10 11 12 13 14 15 16 17 18 19 20 21 22 23 24 25 26 27 28 29 30 31 32 33 34 35 36 37 38 39 40 41 42 43 44 45 46 47 48 49 50
182
ASUS44 KLIX 301010
RWRLA
LOUISIANA WEATHER ROUNDUP
NATIONAL WEATHER SERVICE NEW ORLEANS LA
500 AM CDT WED JUL 30 2014

NOTE: "FAIR" INDICATES FEW OR NO CLOUDS BELOW 12,000 FEET WITH NO
      SIGNIFICANT WEATHER AND/OR OBSTRUCTIONS TO VISIBILITY.
      SKY/WX - SKY CONDITION AND SIGNIFICANT WEATHER.
      TMP - AIR TEMPERATURE.    DP   - DEWPOINT TEMPERATURE.
      RH  - RELATIVE HUMIDITY.  PRES - PRESSURE.
      HX  - HEAT INDEX.         WCI  - WIND CHILL INDEX.

*  THESE STATIONS ARE NOT NWS OR FAA STATIONS AND ARE NOT UNDER
   NWS QUALITY CONTROL.

LAZ040-048-061>063-065-066-069-301100-
SOUTHEAST LOUISIANA

CITY           SKY/WX    TMP DP  RH WIND       PRES   REMARKS
N.O. AUDUBON     N/A     76  64  67 MISG        N/A
N.O. INTL ARPT PTCLDY    76  64  66 NE10      30.04R
N.O. LAKEFRONT CLEAR     77  62  59 E17       30.05R
N.O. DOWNTOWN* FAIR      75  61  60 N6        30.05R
SLIDELL        CLEAR     68  64  87 CALM      30.04R
BATON ROUGE    MOCLDY    69  63  81 NE6       30.06S
BOOTHVILLE     CLEAR     79  70  74 NE10      30.02R
BELLE CHASSE   CLEAR     74  64  71 N5        30.04R
BOGALUSA*        N/A     65  61  86 CALM      30.07S
GALLIANO*      NOT AVBL
NEW ROADS*     PTSUNNY   69  63  79 NE3       30.07R
GONZALES*      FAIR      70  67  89 CALM      30.05S
HAMMOND*       PTCLDY    68  61  77 CALM      30.07S
HOUMA*         CLEAR     72  66  82 N3        30.04S
PORT FOURCHON* SUNNY     81  72  74 NE9       30.04R

$$

LAZ041-044-053-054-301100-
SOUTHWEST LOUISIANA

CITY           SKY/WX    TMP DP  RH WIND       PRES   REMARKS
LAKE CHARLES   CLEAR     73  69  87 NE7       30.05R
LAFAYETTE      PTCLDY    72  69  90 NE3       30.06S
PATTERSON      CLEAR     72  66  83 NE7       30.08S
SALT POINT       N/A     75  70  84 CALM      30.04R
NEW IBERIA     CLEAR     73  68  84 NE7       30.06S
CHENAULT AIRPK NOT AVBL

$$

LAZ027-028-301100-
CENTRAL LOUISIANA

CITY           SKY/WX    TMP DP  RH WIND       PRES   REMARKS
FORT POLK      PTCLDY    71  66  84 E5        30.07S
ALEXANDRIA INT CLEAR     69  64  84 NE3       30.06S
ALEXANDRIA     CLEAR     67  64  90 CALM      30.08R

$$

LAZ001-002-301100-
NORTHWEST LOUISIANA

CITY           SKY/WX    TMP DP  RH WIND       PRES   REMARKS
SHREVEPORT     PTCLDY    72  63  73 SE6       30.07R
BARKSDALE AFB  CLEAR     67  63  86 SE2       30.08R
DTN SHREVEPORT PTCLDY    71  62  73 SE5       30.07S

$$

LAZ014-016-301100-
NORTHEAST LOUISIANA

CITY           SKY/WX    TMP DP  RH WIND       PRES   REMARKS
MONROE         CLEAR     63  61  93 CALM      30.08F
TALLULAH       CLEAR     59  57  93 CALM      30.09R

$$




USA.gov is the U.S. government's official web portal to all federal, state and local government web resources and services.